Theta_e
342 343 347 350 351 352 349 347 348 351 353 355 356 352 352 340 341 353 352 352 352 352 350 350 350 351 351 353 354 347 352 354 353
339 342 346 349 351 352 351 348 349 351 353 353 348 347 344 342 339 341 353 352 350 356 354 351 350 352 354 354 354 354 352 353 353
337 339 345 348 350 352 353 352 350 351 353 353 342 344 338 335 337 339 344 353 354 356 355 354 354 353 355 353 353 352 351 353 353
337 337 343 347 350 350 352 353 353 352 354 355 355 343 341 337 335 338 339 344 351 350 352 356 351 356 353 349 347 350 351 350 352
335 337 340 346 348 349 350 352 354 355 355 356 355 351 344 340 339 337 338 339 342 346 346 347 355 351 355 351 347 349 352 348 351
336 337 339 342 346 347 348 349 352 354 356 356 357 358 356 355 345 341 339 340 339 341 342 343 345 351 352 350 350 348 345 344 341
336 337 340 341 341 341 345 347 350 353 354 356 357 357 358 359 356 342 343 345 340 339 339 340 342 347 349 349 348 348 345 338 338
333 336 337 337 339 341 342 345 349 351 353 354 355 356 357 358 359 359 359 356 349 343 340 339 339 342 345 346 348 353 350 348 343
331 331 332 334 335 337 343 344 347 350 353 353 352 355 355 357 359 360 360 359 357 354 344 340 341 341 342 344 345 349 353 351 346
330 330 330 331 331 332 337 341 344 346 350 352 352 352 356 356 358 359 361 361 361 357 352 352 346 343 344 343 344 345 346 351 350
330 330 330 330 331 331 333 334 335 341 345 349 352 354 353 356 356 359 359 357 353 360 360 352 354 352 349 346 344 344 345 346 349
329 330 330 331 331 331 332 333 334 337 345 348 347 342 351 354 358 359 359 353 350 357 357 357 355 358 358 351 345 345 344 346 347
338 332 333 333 331 332 333 334 335 335 338 344 349 343 346 354 356 358 358 356 353 353 360 359 360 357 355 350 345 348 346 345 349
343 343 343 340 340 339 336 337 337 338 338 342 343 354 355 357 355 358 358 355 352 354 359 362 361 359 361 361 358 349 345 345 350
346 345 343 338 340 344 341 339 342 345 342 342 348 351 355 358 358 359 360 357 358 360 360 360 360 361 361 361 360 360 355 349 349
348 346 347 346 347 345 347 353 354 352 349 351 353 355 356 358 358 359 358 360 360 363 361 362 362 362 362 362 361 362 360 358 354
348 348 348 347 350 352 355 360 359 360 363 359 358 359 359 359 361 361 363 361 363 362 362 362 362 361 361 360 361 361 362 363 361
348 347 346 350 352 354 354 354 354 354 356 361 361 362 362 362 362 362 363 362 361 362 362 362 362 362 361 361 361 361 362 361 362
348 349 349 352 352 350 350 351 352 352 352 353 355 360 361 360 359 361 362 361 363 360 361 361 360 359 360 361 361 360 360 361 360
342 343 345 348 350 350 347 343 344 349 349 350 351 352 347 349 346 348 349 352 353 354 356 355 356 356 356 358 358 359 359 358 358
Wind_Speed
29 27 28 34 37 37 38 40 42 40 40 41 40 40 39 38 41 30 31 28 23 23 20 20 19 24 21 22 19 19 18 16 13
28 30 28 33 37 39 39 40 44 45 44 44 44 44 44 43 41 42 34 32 31 25 23 20 22 22 21 23 24 22 21 18 20
31 27 29 32 35 39 40 40 44 46 46 47 43 44 44 45 45 44 43 37 36 31 28 26 21 26 24 23 25 26 25 21 21
28 27 29 31 34 37 38 38 38 42 45 44 44 44 45 44 46 47 45 46 43 39 34 33 32 26 28 27 26 27 28 26 22
32 30 29 30 31 30 34 38 38 40 41 43 48 46 47 48 46 45 47 47 48 46 42 39 36 34 35 30 28 29 30 30 26
23 25 25 27 31 31 31 35 38 39 41 42 41 43 43 46 50 51 51 49 46 46 44 42 42 40 39 38 34 32 33 34 33
15 14 8 15 20 25 29 29 34 38 38 38 38 39 41 44 49 53 52 50 50 47 46 44 42 43 42 42 41 39 39 40 39
6 7 10 13 15 18 19 23 27 34 36 36 37 41 43 48 46 45 43 45 49 47 45 44 44 45 45 44 44 41 44 42 42
6 7 8 11 13 13 17 24 25 27 34 35 36 39 46 44 45 44 45 45 46 47 47 47 46 47 48 49 48 46 43 43 44
11 12 12 14 16 15 17 19 19 25 29 32 37 42 40 44 43 45 44 42 43 49 51 48 51 52 51 51 52 51 49 47 46
14 14 15 14 16 18 18 20 19 22 22 29 34 38 43 42 45 43 45 46 48 46 46 50 49 51 52 53 55 55 53 52 49
23 21 20 18 18 19 19 19 15 17 19 24 28 33 41 44 42 43 45 48 47 45 45 45 48 46 46 52 56 56 54 53 53
13 18 15 15 18 18 18 20 22 23 24 25 30 32 34 39 41 44 46 46 44 42 41 43 40 43 47 50 52 53 55 54 55
16 17 17 14 13 13 16 15 17 21 25 27 32 24 26 35 38 42 42 41 39 39 38 35 39 40 41 43 47 52 54 56 55
19 19 18 17 17 15 13 13 14 18 23 26 23 26 26 31 33 32 31 37 35 35 34 35 39 37 40 41 45 47 50 55 57
16 15 13 12 13 13 8 8 11 15 18 18 20 22 24 26 27 28 30 29 31 28 30 30 31 33 37 39 39 40 45 51 53
12 8 7 7 7 7 4 2 3 6 7 9 14 16 20 21 21 22 22 24 22 24 25 26 28 30 32 32 32 35 37 40 44
10 8 6 3 2 4 3 3 3 2 3 5 9 11 13 14 15 18 18 20 21 21 23 23 24 24 25 28 30 32 32 34 37
10 6 3 5 7 5 6 6 6 5 2 5 6 8 9 10 11 12 13 14 15 21 23 19 24 30 30 29 28 33 33 34 41
12 11 7 6 8 8 8 8 9 6 5 6 6 4 8 3 8 8 9 10 10 12 10 13 21 24 32 38 41 44 46 46 44
Wind_Direction
195 193 197 198 199 199 198 196 196 200 204 210 212 212 215 216 216 213 212 212 210 212 215 221 221 238 234 221 229 221 219 221 220
206 185 196 198 200 200 199 199 199 200 203 215 217 215 218 222 220 219 214 212 217 214 218 218 221 224 235 217 216 222 218 217 235
211 202 191 197 200 201 202 203 203 203 205 212 219 215 220 222 223 224 219 216 216 220 216 220 218 224 219 221 218 218 222 222 221
208 202 188 195 198 202 204 205 205 208 208 208 213 218 220 222 225 226 226 224 224 221 222 217 217 224 233 225 221 220 222 218 222
211 209 192 196 198 201 202 206 207 209 210 211 217 218 220 224 226 229 231 230 228 233 231 231 227 225 232 235 229 224 224 228 223
202 202 193 197 194 196 203 206 208 211 212 215 216 216 218 218 226 229 231 234 234 232 235 235 237 237 235 239 235 231 232 234 234
184 199 176 198 202 200 201 203 206 210 214 216 216 218 218 220 223 229 230 229 235 236 236 236 235 235 239 240 239 237 237 237 234
112 151 193 202 213 224 224 205 203 208 214 214 215 216 219 223 224 225 223 225 229 235 236 237 237 236 237 240 240 236 239 238 239
211 236 228 199 196 214 214 210 210 212 213 213 213 217 219 220 221 223 223 223 226 227 235 235 235 234 234 236 238 235 232 238 238
244 252 245 234 237 239 212 209 215 218 215 216 217 220 220 219 220 222 221 221 223 229 234 232 236 238 237 237 239 239 238 237 240
269 270 269 259 242 231 221 224 227 217 215 220 220 221 222 220 218 219 221 226 231 226 228 234 232 235 238 240 241 240 239 240 239
265 269 266 259 243 236 232 239 236 228 214 219 230 229 225 220 218 217 221 229 232 227 228 230 233 233 235 239 242 242 240 239 238
307 270 281 275 249 247 248 242 236 231 227 223 231 239 228 224 216 219 221 227 229 230 229 233 231 236 239 243 245 243 242 240 236
308 296 289 294 288 272 260 254 240 230 224 224 233 227 223 221 219 219 222 227 231 232 230 228 237 235 239 240 243 245 244 241 237
309 302 290 274 276 278 274 251 237 237 228 222 224 220 218 218 220 217 223 224 227 227 228 233 233 238 241 243 246 246 247 246 240
301 296 292 278 270 272 259 250 245 239 237 222 212 214 218 215 219 223 213 228 226 226 232 231 238 239 242 245 242 250 253 252 248
309 305 307 299 272 251 246 324 228 220 212 207 206 211 213 216 217 219 220 221 227 226 227 234 238 241 246 251 252 249 248 253 253
310 306 305 290 213 169 143 129 114 121 186 181 201 202 204 207 209 217 218 218 220 228 233 234 240 247 251 253 255 256 257 250 255
297 303 289 183 140 146 127 127 141 101 111 144 158 184 195 204 205 215 216 222 234 230 228 234 242 247 254 258 254 256 259 263 257
273 263 234 178 155 167 167 135 98 82 83 105 124 140 175 200 206 213 220 226 238 248 254 249 251 259 257 256 261 260 260 265 268